Wind_Speed
18 17 18 18 18 18 19 19 19 18 19 19 20 21 21 21 21 21 21 21 22 22 22 23 24 24 24 24 25 25 25 25 25 25 25 24 24 24 24 24 24 25 24 24
19 19 20 20 19 19 20 21 21 20 20 21 21 22 22 22 23 23 23 23 23 23 24 24 25 25 25 25 25 25 25 24 24 24 25 25 25 25 25 25 25 25 25 25
20 19 21 22 20 21 21 20 20 22 22 22 23 24 24 24 25 25 24 25 25 25 25 26 26 26 26 26 25 25 24 25 25 25 25 26 26 26 26 26 26 26 26 26
20 20 22 21 21 22 22 21 22 23 24 24 24 24 25 25 26 26 26 26 26 26 26 27 27 27 27 26 26 26 25 25 26 26 26 27 27 27 27 27 27 27 27 27
22 22 23 21 21 21 22 22 23 24 24 24 24 25 25 25 26 26 26 27 26 26 26 26 26 27 27 28 28 27 27 27 27 28 28 28 28 28 28 28 28 28 28 28
23 23 24 21 22 23 23 24 24 24 24 25 25 25 25 26 26 26 27 27 27 27 26 26 27 27 28 29 29 29 29 29 29 29 30 30 30 29 29 29 29 29 29 29
23 24 24 22 23 23 24 25 24 24 24 25 26 26 26 26 26 27 28 28 28 28 28 28 28 28 29 30 30 31 32 31 31 31 31 31 31 31 31 30 30 30 30 30
23 24 24 24 24 25 25 25 25 26 26 26 26 26 26 26 27 28 29 29 29 29 29 29 29 30 31 31 31 32 32 32 32 32 33 32 32 33 32 32 31 31 31 31
24 24 24 25 25 25 26 26 27 27 26 27 27 27 27 27 28 29 29 29 29 30 30 30 30 32 32 33 33 33 33 33 34 34 34 34 33 33 33 32 31 31 31 31
25 25 25 26 26 26 27 27 27 27 27 28 28 28 28 28 28 29 29 29 30 30 31 31 31 32 33 34 35 36 36 35 34 34 34 34 33 33 33 32 32 32 32 32
26 25 25 26 27 28 28 27 27 27 27 28 27 28 28 29 29 29 30 30 30 31 31 32 32 32 33 34 35 35 35 35 35 35 34 34 34 33 32 33 33 32 32 32
26 26 26 27 27 27 27 27 27 27 27 27 27 28 29 30 30 30 31 32 32 32 33 33 33 33 34 34 34 34 34 34 34 34 34 34 33 33 33 34 34 34 33 33
27 27 27 27 27 27 27 28 28 28 28 28 27 28 29 30 31 31 32 33 34 34 34 34 34 34 34 34 34 34 34 34 34 33 33 33 33 34 34 34 34 34 35 35
29 28 28 29 29 28 28 29 29 30 30 30 30 30 31 31 32 32 33 34 34 35 35 35 34 34 34 34 34 34 34 33 33 33 33 34 34 34 35 35 35 35 35 36
30 30 30 30 30 30 30 30 30 31 31 31 31 32 32 32 32 33 34 35 35 35 35 35 34 34 34 34 34 33 33 32 32 32 33 33 34 34 35 35 35 35 35 35
31 31 30 30 30 31 31 31 31 31 31 32 32 33 33 33 34 34 35 35 35 35 35 35 35 35 34 34 34 34 34 33 33 33 33 34 34 34 35 35 35 35 36 35
31 31 31 31 31 31 32 32 32 32 32 33 33 34 34 35 35 35 35 35 35 36 36 36 36 35 35 35 35 34 34 33 33 33 33 34 34 34 34 34 35 35 35 35
31 32 32 33 32 32 33 33 33 33 33 33 34 34 34 35 36 36 36 36 35 36 36 36 35 35 35 35 35 34 33 33 32 32 32 33 33 34 34 34 34 34 34 34
32 32 33 32 32 33 33 33 34 34 35 35 34 34 35 35 36 36 36 36 36 36 36 36 36 35 35 35 34 33 33 32 32 32 33 33 33 32 32 33 33 33 33 33
32 32 33 33 33 33 33 33 34 34 35 35 35 35 35 36 36 37 37 37 37 36 36 35 35 35 35 34 33 33 33 32 32 32 32 33 33 33 33 33 33 33 33 34
32 33 33 33 33 33 34 34 35 35 36 36 37 37 37 37 38 37 37 37 37 36 36 35 35 34 34 33 33 33 33 33 33 33 33 33 33 34 34 34 34 34 35 35
31 32 32 33 33 34 34 35 35 36 36 36 37 37 38 38 38 38 37 37 37 36 36 36 35 34 33 33 34 34 34 34 34 34 33 34 34 34 34 34 35 35 36 36
32 32 33 33 33 34 34 35 35 35 35 36 36 37 38 38 38 37 37 36 36 36 36 36 35 35 34 34 35 35 35 35 35 34 35 35 35 35 35 35 35 36 36 35
32 33 33 33 34 34 34 34 34 34 35 35 35 36 36 36 36 36 36 35 35 35 35 35 34 34 34 34 34 34 34 35 35 35 35 35 35 35 35 35 35 36 36 35
33 33 34 34 34 34 34 34 34 34 35 35 35 35 35 35 35 35 35 35 34 34 33 33 33 33 32 32 33 33 33 33 33 34 34 34 35 35 36 36 36 36 35 35
34 34 34 34 34 34 34 34 34 34 34 34 34 34 35 35 35 35 34 33 32 32 32 32 32 32 31 32 32 32 32 32 32 33 34 34 34 35 35 35 35 35 34 34
34 34 34 34 34 34 34 33 33 34 34 33 33 33 33 33 33 33 33 31 31 31 31 31 32 32 32 32 32 32 32 32 33 33 33 33 34 33 33 33 32 32 32 32
Wind_Direction
258 262 268 269 268 265 263 267 269 271 274 276 277 280 281 282 285 286 288 289 290 291 290 290 289 289 290 291 292 291 291 291 290 289 288 287 285 284 285 286 286 285 285 285
258 259 262 267 267 269 269 270 271 272 274 276 275 277 280 283 285 285 286 288 289 290 290 289 288 288 290 290 291 291 292 292 291 289 287 287 285 284 286 287 287 286 286 285
259 260 261 264 269 272 273 273 273 274 275 276 277 277 279 283 284 285 287 288 289 289 289 289 289 288 288 288 290 290 291 292 291 289 288 288 287 285 286 287 286 285 284 284
261 262 262 267 269 272 274 275 275 276 277 277 279 280 282 284 286 286 287 288 289 289 289 289 289 288 286 286 288 289 289 289 289 289 289 289 289 286 285 285 284 283 283 284
260 263 265 267 269 270 275 276 277 277 278 280 281 282 285 286 288 288 288 289 289 289 290 290 290 289 288 287 286 288 288 288 289 289 289 288 288 287 285 284 283 281 281 282
261 263 266 269 268 271 275 278 280 281 280 280 281 282 284 285 287 288 288 289 289 289 290 290 289 289 288 288 286 287 288 288 287 287 288 288 287 286 284 283 281 280 279 280
260 263 266 268 270 272 274 277 279 281 281 281 282 283 285 287 288 289 290 288 290 288 290 290 289 288 288 287 286 285 285 285 286 286 287 287 286 285 283 282 281 279 279 280
261 264 267 268 272 273 274 276 278 279 281 283 283 285 285 287 289 290 290 290 290 291 292 291 288 288 288 288 287 286 286 285 285 286 286 286 284 284 283 281 281 279 278 278
263 266 269 270 271 274 275 276 278 280 282 284 285 285 284 285 288 290 291 291 291 292 293 293 291 289 289 288 288 288 287 287 286 284 284 285 284 284 283 281 280 279 278 277
265 266 267 269 271 272 274 276 279 281 283 285 285 284 285 286 288 289 290 291 292 293 293 293 292 291 290 290 289 289 288 287 286 285 284 284 284 283 283 283 281 280 278 277
267 266 266 268 272 274 276 278 280 282 284 284 284 285 285 286 287 289 291 292 292 293 294 294 294 293 293 293 291 290 289 288 287 285 284 283 283 283 282 281 281 280 279 277
266 268 268 270 272 275 278 280 282 282 283 284 284 286 286 286 288 290 291 292 293 294 294 295 295 295 295 295 294 293 291 290 288 286 284 283 282 282 281 280 281 281 279 278
265 268 270 273 275 276 278 280 282 283 284 285 286 287 288 289 290 291 292 294 294 294 295 295 296 295 294 294 294 293 293 291 289 286 285 284 283 282 281 281 282 281 279 279
265 268 271 273 275 277 278 279 281 283 285 286 287 288 289 290 291 292 293 295 295 295 295 295 295 295 294 295 295 294 292 291 290 287 285 284 284 284 283 283 282 281 280 278
266 268 270 273 275 277 278 279 280 282 284 286 288 289 291 292 293 294 294 296 295 295 295 295 295 295 294 294 294 294 292 290 289 288 287 286 285 284 284 283 282 282 281 279
266 269 270 273 276 277 277 278 280 282 284 286 288 290 290 291 294 294 295 295 295 294 295 295 295 295 294 294 293 293 292 290 289 288 287 286 286 284 284 284 283 283 283 282
268 270 271 273 275 276 277 278 280 282 285 286 287 289 290 291 292 294 295 295 294 294 294 296 295 295 295 295 294 293 292 291 290 289 289 289 288 286 285 285 284 284 283 282
270 272 274 275 276 277 278 279 280 283 286 288 288 290 291 292 293 294 294 294 294 294 294 295 295 296 296 296 295 294 293 293 292 291 290 289 289 288 287 286 286 286 285 283
271 273 275 276 277 278 279 281 282 284 285 287 288 289 290 292 293 294 294 293 293 294 294 295 294 294 295 295 294 293 293 293 292 291 290 290 290 290 289 288 287 287 286 285
273 274 276 277 277 278 279 281 283 284 285 287 288 289 290 292 293 294 294 293 293 295 295 295 294 293 294 294 295 294 294 293 292 291 290 290 290 290 289 288 288 288 287 285
274 276 277 277 278 279 280 282 283 284 285 286 287 289 291 292 293 293 293 293 294 294 294 295 294 293 292 293 293 293 293 293 292 291 291 290 290 290 289 288 288 287 286 285
276 277 278 279 280 281 281 283 284 284 285 287 288 289 291 292 293 293 292 293 294 293 293 294 294 293 292 292 292 292 292 291 292 292 291 291 291 290 290 289 289 288 287 287
277 278 279 280 280 281 282 284 285 285 286 287 289 290 292 293 294 293 293 293 293 293 293 293 293 292 292 292 291 291 291 291 292 291 291 290 290 290 291 291 290 290 289 288
278 279 280 281 282 283 284 285 286 286 287 288 290 292 293 293 294 294 295 294 293 293 293 294 293 293 292 292 292 292 292 293 293 292 292 291 290 290 291 291 291 290 290 289
280 280 280 281 282 283 284 285 285 287 288 289 290 291 292 292 293 293 294 294 294 294 294 294 294 294 293 293 293 293 294 295 294 294 294 294 293 292 291 290 290 290 289 288
281 282 282 282 283 284 284 285 286 287 289 290 290 292 292 292 292 293 294 293 293 294 294 294 295 295 294 294 294 294 295 295 295 296 296 296 295 294 293 292 290 290 290 290
280 281 282 283 284 284 285 286 286 288 289 290 290 291 292 292 293 294 294 293 293 295 295 295 295 295 295 295 295 295 295 296 297 298 298 299 298 297 296 294 293 292 292 292
Height
5808 5809 5809 5809 5810 5810 5810 5810 5811 5811 5809 5809 5808 5806 5806 5805 5804 5804 5802 5801 5800 5798 5797 5796 5794 5792 5791 5790 5788 5786 5784 5783 5781 5780 5779 5777 5776 5776 5775 5774 5773 5772 5771 5770
5803 5804 5804 5804 5805 5805 5805 5805 5805 5805 5805 5804 5803 5802 5800 5800 5799 5798 5797 5795 5794 5792 5791 5789 5788 5786 5785 5783 5781 5778 5777 5776 5774 5773 5772 5771 5769 5768 5767 5766 5765 5765 5764 5763
5798 5799 5799 5799 5801 5800 5800 5800 5800 5800 5800 5798 5797 5796 5795 5794 5793 5792 5791 5790 5788 5786 5785 5783 5781 5780 5778 5776 5774 5772 5771 5769 5768 5766 5765 5763 5762 5761 5760 5759 5758 5757 5756 5755
5793 5794 5794 5797 5796 5795 5795 5795 5794 5793 5793 5792 5791 5790 5789 5788 5787 5786 5785 5783 5781 5780 5778 5776 5774 5772 5771 5769 5767 5765 5764 5762 5761 5759 5758 5756 5755 5753 5752 5751 5750 5749 5748 5748
5787 5787 5788 5790 5790 5789 5789 5789 5788 5788 5787 5786 5785 5784 5783 5781 5780 5779 5778 5776 5774 5772 5770 5769 5767 5765 5763 5761 5760 5757 5756 5755 5753 5752 5750 5748 5747 5745 5744 5742 5741 5741 5740 5740
5782 5782 5782 5785 5784 5783 5784 5782 5782 5781 5780 5779 5779 5778 5777 5775 5774 5772 5771 5769 5767 5765 5763 5761 5759 5757 5756 5754 5752 5750 5748 5746 5745 5743 5742 5740 5739 5737 5735 5734 5733 5732 5732 5731
5776 5776 5776 5778 5777 5778 5778 5777 5776 5775 5774 5773 5772 5771 5770 5768 5767 5765 5763 5762 5759 5757 5755 5754 5751 5749 5747 5746 5743 5741 5739 5738 5736 5734 5733 5731 5730 5728 5727 5726 5724 5724 5723 5722
5770 5770 5773 5772 5771 5772 5771 5770 5769 5769 5768 5767 5766 5764 5763 5761 5760 5758 5756 5754 5752 5750 5748 5746 5743 5741 5739 5737 5735 5733 5731 5729 5727 5725 5723 5722 5720 5719 5717 5716 5715 5714 5713 5713
5764 5766 5766 5765 5765 5764 5763 5763 5763 5762 5761 5760 5759 5757 5756 5754 5753 5751 5749 5747 5745 5742 5740 5738 5735 5733 5730 5728 5726 5723 5721 5719 5717 5715 5714 5712 5710 5709 5707 5706 5705 5704 5704 5703
5758 5758 5758 5757 5757 5757 5756 5756 5756 5755 5754 5753 5751 5750 5749 5747 5745 5743 5741 5739 5737 5734 5732 5729 5726 5724 5721 5718 5715 5713 5711 5709 5707 5705 5703 5702 5700 5699 5698 5696 5695 5694 5693 5693
5751 5751 5751 5750 5750 5750 5750 5749 5749 5748 5747 5745 5744 5742 5741 5739 5737 5735 5733 5730 5728 5726 5723 5720 5717 5714 5711 5708 5705 5702 5700 5697 5695 5694 5692 5691 5690 5689 5688 5686 5685 5684 5683 5682
5744 5744 5744 5744 5743 5743 5742 5742 5741 5740 5739 5737 5736 5735 5733 5731 5729 5727 5724 5722 5719 5717 5714 5711 5708 5704 5701 5697 5694 5692 5689 5686 5684 5682 5681 5680 5679 5678 5677 5676 5675 5674 5673 5672
5736 5736 5736 5736 5736 5735 5735 5734 5733 5732 5731 5729 5728 5726 5724 5722 5720 5718 5716 5713 5710 5707 5704 5701 5698 5694 5691 5688 5685 5682 5679 5676 5674 5672 5671 5670 5669 5668 5667 5666 5664 5663 5662 5661
5728 5729 5729 5729 5728 5728 5727 5726 5725 5724 5723 5721 5720 5718 5716 5714 5712 5709 5706 5704 5701 5698 5695 5691 5688 5685 5681 5678 5675 5672 5669 5666 5664 5662 5661 5659 5658 5657 5656 5655 5654 5653 5652 5650
5720 5721 5721 5720 5720 5719 5719 5718 5717 5716 5714 5713 5711 5709 5707 5705 5703 5700 5697 5694 5691 5688 5685 5681 5678 5675 5672 5668 5665 5662 5659 5657 5655 5653 5651 5649 5648 5646 5645 5644 5643 5642 5640 5639
5712 5712 5712 5712 5711 5711 5710 5709 5708 5707 5706 5704 5702 5700 5698 5696 5693 5690 5687 5684 5681 5678 5675 5671 5668 5665 5662 5658 5655 5653 5650 5647 5645 5643 5641 5639 5637 5636 5634 5633 5632 5630 5629 5628
5703 5703 5703 5703 5703 5702 5701 5700 5699 5698 5696 5695 5693 5691 5689 5686 5684 5681 5678 5674 5671 5668 5665 5661 5658 5655 5652 5648 5645 5642 5640 5637 5635 5633 5631 5629 5627 5625 5623 5622 5621 5619 5618 5616
5694 5694 5694 5694 5693 5693 5692 5691 5689 5688 5687 5685 5683 5681 5679 5676 5674 5671 5668 5664 5661 5658 5655 5652 5648 5645 5642 5638 5635 5632 5630 5627 5625 5623 5621 5619 5617 5615 5613 5611 5610 5608 5607 5605
5685 5685 5684 5684 5683 5683 5682 5681 5680 5679 5677 5675 5673 5671 5668 5666 5663 5660 5657 5654 5651 5648 5645 5642 5638 5635 5632 5629 5625 5622 5620 5617 5615 5613 5611 5609 5607 5605 5603 5601 5599 5598 5596 5594
5675 5675 5675 5674 5674 5673 5672 5671 5670 5668 5667 5665 5663 5661 5658 5656 5653 5650 5647 5644 5641 5638 5635 5631 5628 5624 5621 5619 5616 5613 5611 5608 5606 5603 5601 5599 5597 5595 5593 5591 5589 5587 5585 5584
5666 5665 5665 5664 5664 5663 5662 5661 5659 5658 5656 5654 5652 5650 5648 5645 5642 5639 5636 5633 5630 5627 5624 5620 5617 5614 5611 5609 5606 5604 5601 5599 5596 5593 5591 5589 5587 5585 5583 5580 5578 5576 5574 5572
5656 5655 5655 5654 5654 5653 5652 5650 5649 5647 5645 5643 5641 5639 5637 5634 5631 5628 5625 5622 5620 5616 5613 5610 5607 5604 5601 5599 5596 5594 5591 5589 5586 5583 5581 5579 5577 5574 5572 5570 5568 5565 5563 5561
5646 5646 5645 5644 5643 5642 5641 5640 5638 5636 5635 5633 5631 5628 5625 5623 5620 5617 5614 5611 5608 5605 5602 5599 5596 5594 5591 5588 5586 5583 5581 5578 5576 5573 5571 5568 5566 5563 5561 5559 5556 5554 5552 5550
5637 5636 5635 5634 5633 5632 5631 5630 5628 5626 5624 5622 5620 5617 5614 5612 5609 5606 5603 5600 5597 5594 5591 5588 5586 5583 5580 5578 5575 5573 5570 5568 5565 5562 5560 5557 5554 5552 5550 5548 5545 5543 5541 5538
5627 5626 5625 5624 5623 5621 5620 5619 5617 5616 5614 5612 5609 5607 5604 5601 5598 5596 5592 5589 5587 5584 5581 5578 5576 5573 5570 5568 5565 5563 5560 5557 5554 5552 5549 5546 5543 5541 5538 5536 5534 5531 5529 5527
5617 5615 5614 5613 5612 5611 5609 5608 5607 5605 5603 5601 5599 5596 5593 5591 5588 5585 5582 5579 5576 5574 5571 5569 5566 5563 5561 5558 5555 5553 5550 5547 5545 5542 5539 5535 5532 5530 5527 5524 5522 5520 5518 5516
5606 5605 5604 5603 5602 5600 5599 5597 5596 5594 5592 5590 5588 5586 5583 5580 5578 5575 5572 5569 5567 5564 5562 5559 5556 5554 5551 5549 5546 5543 5540 5537 5535 5532 5529 5525 5522 5519 5517 5514 5512 5509 5507 5505